Regional Weather Roundup
Issued by NWS

Home | Current Version | Previous Version | Graphics & Text | Print | Product List | Glossary On
Versions: 1 2 3 4 5 6 7 8 9 10 11 12 13 14 15 16 17 18 19 20 21 22 23 24 25 26 27 28 29 30 31 32 33 34 35 36 37 38 39 40 41 42 43 44 45 46 47 48 49 50
776
ASUS43 KOAX 211010
RWRNE

WEATHER ROUNDUP FOR NEBRASKA
NATIONAL WEATHER SERVICE OMAHA NE
400 AM CST SAT JAN 21 2017

NOTES: SATELLITE DATA IS BEING USED TO AUGMENT CLOUD COVER ABOVE
       12000 FEET.
       "FAIR" INDICATES FEW OR NO CLOUDS BELOW 12,000 FEET WITH NO
       SIGNIFICANT WEATHER AND/OR OBSTRUCTIONS TO VISIBILITY.

  * THESE STATIONS DO NOT REPORT WEATHER SUCH AS RAIN...SNOW OR FOG.

NEZ001>004-019>022-054>056-211100-
NEBRASKA PANHANDLE

CITY           SKY/WX    TMP DP  RH WIND       PRES   REMARKS
SCOTTSBLUFF    CLEAR     26  20  77 NW5       29.40F WCI  20
ALLIANCE       CLOUDY    23  21  92 W9        29.38S WCI  13
CHADRON        CLOUDY    32  27  81 W12       29.38F WCI  23
KIMBALL        CLEAR     24  22  95 W5        29.40F WCI  18
SIDNEY         CLEAR     27  20  75 MISG      29.41F
$$

NEZ057>060-069>072-079>082-211100-
SOUTHWEST NEBRASKA

CITY           SKY/WX    TMP DP  RH WIND       PRES   REMARKS
NORTH PLATTE   CLEAR     27  26  96 W7        29.41R FOG     WCI  19
IMPERIAL       CLEAR     31  27  85 W10       29.43R WCI  22
LEXINGTON      CLOUDY    32  31  95 NW5       29.40S WCI  28
MCCOOK         CLEAR     30  30 100 W8        29.42F WCI  22
OGALLALA       CLOUDY    30  28  95 W6        29.42S WCI  24
$$

NEZ005>010-023>029-035>040-094-211100-
NORTH CENTRAL NEBRASKA

CITY           SKY/WX    TMP DP  RH WIND       PRES   REMARKS
VALENTINE      MOCLDY    31  28  89 W5        29.34S WCI  26
AINSWORTH      CLOUDY    33  32  96 W7        29.34S WCI  27
BROKEN BOW     CLOUDY    36  33  89 W6        29.37R WCI  31
O`NEILL        CLOUDY    34  32  94 W6        29.35S WCI  29
ORD            CLOUDY    35  31  85 W6        29.36S WCI  30
THEDFORD       MOCLDY    34  33  96 W6        29.37S WCI  29
$$

NEZ041-046>049-061>064-073>077-083>087-211100-
SOUTH CENTRAL NEBRASKA

CITY           SKY/WX    TMP DP  RH WIND       PRES   REMARKS
GRAND ISLAND   PTCLDY    34  34 100 W8        29.38F WCI  27
AURORA         CLOUDY    33  33 100 W7        29.38S WCI  27
HASTINGS       PTCLDY    34  32  92 W7        29.40S WCI  28
HEBRON         FOG       33  33 100 W3        29.41F VSB 1/4
HOLDREGE       PTCLDY    33  33  97 W6        29.40S WCI  28
KEARNEY *      MOCLDY    34 -15  12 W7        29.40S WCI  28
YORK           MOCLDY    34  34 100 SW7       29.39S WCI  28
$$

NEZ011>018-030>034-042>045-211100-
NORTHEAST NEBRASKA

CITY           SKY/WX    TMP DP  RH WIND       PRES   REMARKS
NORFOLK        CLOUDY    37  35  92 W7        29.35S WCI  32
ALBION         CLOUDY   N/A N/A N/A CALM      29.36S
BLAIR          FOG       40  40  99 S5        29.37F VSB 1/4
FREMONT        CLOUDY    39  39 100 CALM      29.38F FOG
TEKAMAH        FOG       36  35  96 S3        29.37F VSB 1/4
WAYNE          FOG       36  36  99 S7        29.35S VSB 1/4 WCI  31
$$

NEZ050>053-065>068-078-088>093-211100-
SOUTHEAST NEBRASKA

CITY           SKY/WX    TMP DP  RH WIND       PRES   REMARKS
LINCOLN        CLOUDY    39  39 100 SW3       29.40F
OMAHA EPPLEY   FOG       41  37  86 CALM      29.38F VSB 1/2
BEATRICE       FOG       39  39 100 SW6       29.41S VSB 1/2 WCI  35
FALLS CITY     CLOUDY    44  43  96 SW5       29.40F
NEBRASKA CITY  CLOUDY    41  41 100 W8        29.40S FOG
PLATTSMOUTH    FOG       40  39  94 SW9       29.39S VSB 1/2 WCI  35
$$

NEZ044-045-051>053-067-211100-
OMAHA AREA

CITY           SKY/WX    TMP DP  RH WIND       PRES   REMARKS
OMAHA EPPLEY   FOG       41  37  86 CALM      29.38F VSB 1/2
BLAIR          FOG       40  40  99 S5        29.37F VSB 1/4
FREMONT        CLOUDY    39  39 100 CALM      29.38F FOG
MILLARD        CLOUDY    42  42  97 CALM      29.38F FOG
OFFUTT AFB     FOG       41  41 100 W3        29.38F VSB 3/4
PLATTSMOUTH    FOG       40  39  94 SW9       29.39S VSB 1/2 WCI  35
WAHOO          FOG       37  37  97 SW3       29.38S VSB 3/4
$$




USA.gov is the U.S. government's official web portal to all federal, state and local government web resources and services.